Weather History for Gainesville, GA

Change the Weather History Date:

Saturday, January 28, 2012

  Actual Average Record
Temperature  
Mean Temperature 48 °F 43 °F  
Max Temperature 60 °F 51 °F 72 °F (1957)
Min Temperature 35 °F 34 °F -1 °F (1940)
Degree Days  
Heating Degree Days 18 23  
Month to date heating degree days 660  
Since 1 July heating degree days 1856  
Moisture  
Dew Point 33 °F    
Average Humidity 66    
Maximum Humidity 97    
Minimum Humidity 42    
Precipitation  
Precipitation 0.00 in 0.19 in 1.74 in (1952)
Month to date precipitation 4.43  
Year to date precipitation 4.43  
Snow  
Snow 0.00 in - - ()
Month to date snowfall  
Since 1 July snowfall  
Snow Depth -    
Sea Level Pressure  
Sea Level Pressure 30.15 in    
Wind  
Wind Speed 6 mph (WNW)    
Max Wind Speed 15 mph    
Max Gust Speed 24 mph    
Visibility 10 miles    
Events      
T = Trace of Precipitation, MM = Missing Value Source: NWS Daily Summary

Daily Weather History Graph

Daily Weather History Graph

Search for Another Location

Airport:

Trip Planner

Search our weather history database for the weather conditions in past years. The results will help you decide how hot, cold, wet, or windy it might be!

Date:

Astronomy

Jan. 28, 2012 Rise Set
Actual Time 7:35 AM EST 6:00 PM EST
Civil Twilight 7:09 AM EST 6:27 PM EST
Nautical Twilight 6:39 AM EST 6:57 PM EST
Astronomical Twilight 6:09 AM EST 7:27 PM EST
Moon 10:14 AM EST (1/28) 11:29 PM EST (1/28)
Length of Visible Light 11h 18m
Length of Day
10h 25m
Waxing Crescent, 27% of the Moon is Illuminated
Jan 28
Waxing Crescent
Jan 30
First Quarter
Feb 7
Full
Feb 14
Last Quarter
Feb 21
New

Hourly Weather History & Observations

Time (EST) Temp. Windchill Dew Point Humidity Pressure Visibility Wind Dir Wind Speed Gust Speed Precip Events Conditions
12:53 AM 39.0 °F - 35.1 °F 86% 30.04 in 10.0 mi Calm Calm - N/A   Clear
1:53 AM 39.0 °F 34.8 °F 35.1 °F 86% 30.05 in 10.0 mi West 5.8 mph - N/A   Clear
2:53 AM 37.0 °F 34.5 °F 35.1 °F 93% 30.06 in 10.0 mi WNW 3.5 mph - N/A   Clear
3:53 AM 36.0 °F - 35.1 °F 97% 30.07 in 7.0 mi Calm Calm - N/A   Clear
4:53 AM 35.1 °F 31.0 °F 34.0 °F 96% 30.09 in 10.0 mi West 4.6 mph - N/A   Clear
5:53 AM 35.1 °F 30.1 °F 34.0 °F 96% 30.12 in 5.0 mi West 5.8 mph - N/A   Clear
6:53 AM 36.0 °F 32.1 °F 33.1 °F 89% 30.14 in 10.0 mi WNW 4.6 mph - N/A   Clear
7:53 AM 35.1 °F 32.2 °F 32.0 °F 89% 30.14 in 10.0 mi West 3.5 mph - N/A   Clear
8:53 AM 39.9 °F 35.8 °F 36.0 °F 86% 30.14 in 10.0 mi WNW 5.8 mph - N/A   Clear
9:53 AM 46.0 °F 40.2 °F 37.0 °F 71% 30.14 in 10.0 mi WNW 12.7 mph - N/A   Clear
10:53 AM 52.0 °F - 37.9 °F 59% 30.15 in 10.0 mi West 10.4 mph 17.3 mph N/A   Clear
11:53 AM 54.0 °F - 37.0 °F 53% 30.14 in 10.0 mi West 10.4 mph - N/A   Clear
12:53 PM 57.0 °F - 37.9 °F 49% 30.12 in 10.0 mi WSW 15.0 mph 19.6 mph N/A   Clear
1:53 PM 60.1 °F - 37.9 °F 44% 30.11 in 10.0 mi West 12.7 mph - N/A   Clear
2:53 PM 59.0 °F - 37.9 °F 46% 30.11 in 10.0 mi West 15.0 mph 23.0 mph N/A   Clear
3:53 PM 57.0 °F - 39.0 °F 51% 30.13 in 10.0 mi West 15.0 mph 24.2 mph N/A   Clear
5:53 PM 51.1 °F - 34.0 °F 52% 30.19 in 10.0 mi NNW 11.5 mph - N/A   Mostly Cloudy
6:53 PM 48.9 °F - 28.0 °F 44% 30.23 in 10.0 mi NW 10.4 mph - N/A   Clear
7:53 PM 46.0 °F 42.5 °F 28.0 °F 50% 30.26 in 10.0 mi NW 6.9 mph - N/A   Clear
8:53 PM 45.0 °F 41.8 °F 24.1 °F 44% 30.27 in 10.0 mi NW 5.8 mph - N/A   Clear
9:53 PM 43.0 °F 38.2 °F 21.0 °F 42% 30.27 in 10.0 mi NW 8.1 mph - N/A   Clear
10:53 PM 41.0 °F 38.0 °F 19.9 °F 43% 30.28 in 10.0 mi NW 4.6 mph - N/A   Clear
11:53 PM 39.0 °F 34.8 °F 19.0 °F 45% 30.28 in 10.0 mi WNW 5.8 mph - N/A   Clear